Date String (YYYY-MM-DD hh:mm:ss) UTC,Instrument flags,Ambient pressure (hPa),Sample flow (lpm),Bypass flow (lpm),Sample temperature (°C),Ambient temperature (°C),ASC tube jacket temperature (°C),LED temperature (°C),Box temperature (°C),Sample RH (%),Span deviation,Mass concentration (μg/m³),Mass concentration (μg/m³),Mass concentration (μg/m³)
DateTimeUTC,F1_M11,P_M11,Q1_M11,Q2_M11,T1_M11,T2_M11,T3_M11,T4_M11,T5_M11,U1_M11,ZSPAN_M11,X0_M11,X2_M11,X1_M11
2023-01-06 06:00:00,,0821.7,4.99,0.00,21.9,20.5,00.0,30.8,23.6,09.4,0001.4,0011.00,0006.97,0006.59
2023-01-06 06:01:00,,0821.6,5.01,0.00,21.9,20.5,00.0,30.8,23.6,09.4,0000.0,0011.12,0007.05,0006.65
2023-01-06 06:02:00,,0821.5,5.02,0.00,22.0,21.3,00.0,30.8,23.8,09.4,0000.0,0011.31,0007.13,0006.73
2023-01-06 06:03:00,,0821.5,5.00,0.00,22.1,22.3,00.0,30.8,24.1,09.3,0000.0,0011.77,0007.21,0006.77
2023-01-06 06:04:00,,0821.4,5.00,0.00,22.2,22.9,00.0,30.8,24.3,09.3,0000.0,0011.45,0007.22,0006.80
2023-01-06 06:05:00,,0821.5,4.99,0.00,22.3,22.6,00.0,30.9,24.3,09.2,0000.0,0011.99,0007.29,0006.81
2023-01-06 06:06:00,,0821.8,5.01,0.00,22.3,22.2,00.0,30.9,24.2,09.2,0000.0,0013.21,0007.38,0006.81
2023-01-06 06:07:00,,0821.9,5.00,0.00,22.3,21.9,00.0,31.0,24.2,09.2,0000.0,0014.18,0007.57,0006.82
2023-01-06 06:08:00,,0821.9,5.00,0.00,22.3,21.6,00.0,31.0,24.1,09.2,0000.0,0014.80,0007.66,0006.81
2023-01-06 06:09:00,,0821.7,5.00,0.00,22.3,21.4,00.0,31.0,24.1,09.2,0000.0,0015.48,0007.71,0006.81
2023-01-06 06:10:00,,0821.8,4.99,0.00,22.3,21.2,00.0,31.0,24.1,09.1,0000.0,0015.92,0007.73,0006.80
2023-01-06 06:11:00,,0822.1,4.99,0.00,22.3,21.1,00.0,31.0,24.0,09.1,0000.0,0016.19,0007.76,0006.78
2023-01-06 06:12:00,,0822.1,5.01,0.00,22.3,21.0,00.0,31.0,24.0,09.1,0000.0,0017.40,0007.87,0006.78
2023-01-06 06:13:00,,0822.0,5.03,0.00,22.3,21.0,00.0,31.0,23.9,09.1,0000.0,0018.11,0007.99,0006.77
2023-01-06 06:14:00,,0821.8,5.00,0.00,22.2,20.9,00.0,31.0,23.9,09.2,0000.0,0018.76,0008.14,0006.75
2023-01-06 06:15:00,,0821.8,4.98,0.00,22.2,20.8,00.0,31.0,23.8,09.2,0000.3,0020.51,0008.29,0006.71
2023-01-06 06:16:00,,0822.0,5.00,0.00,22.2,20.7,00.0,31.0,23.8,09.2,0000.6,0020.73,0008.29,0006.68
2023-01-06 06:17:00,,0822.1,4.99,0.00,22.1,20.6,00.0,31.0,23.7,09.2,0000.3,0020.81,0008.27,0006.64
2023-01-06 06:18:00,,0822.0,5.00,0.00,22.1,20.5,00.0,31.0,23.7,09.2,0000.4,0020.91,0008.19,0006.61
2023-01-06 06:19:00,,0821.8,5.00,0.00,22.1,20.5,00.0,31.0,23.7,09.2,0001.1,0020.61,0008.16,0006.60
2023-01-06 06:20:00,,0821.8,5.01,0.00,22.1,20.8,00.0,31.0,23.8,09.2,0000.9,0021.41,0008.11,0006.56
2023-01-06 06:21:00,,0822.0,5.01,0.00,22.2,21.6,00.0,30.9,24.0,09.2,0000.2,0021.81,0008.07,0006.51
2023-01-06 06:22:00,,0821.8,5.00,0.00,22.3,22.6,00.0,30.9,24.3,09.2,0000.0,0022.27,0008.04,0006.50
2023-01-06 06:23:00,,0821.7,4.99,0.00,22.4,22.7,00.0,31.0,24.4,09.1,0000.0,0021.75,0007.95,0006.45
2023-01-06 06:24:00,,0821.5,4.98,0.00,22.4,22.2,00.0,31.0,24.2,09.1,0000.0,0020.99,0007.79,0006.42
2023-01-06 06:25:00,,0821.5,5.00,0.00,22.4,21.8,00.0,31.1,24.2,08.8,0000.0,0019.88,0007.54,0006.37
2023-01-06 06:26:00,,0821.5,5.00,0.00,22.4,21.5,00.0,31.1,24.1,08.5,0000.0,0017.79,0007.20,0006.23
2023-01-06 06:27:00,,0821.5,5.00,0.00,22.3,21.4,00.0,31.1,24.1,08.4,0000.0,0017.19,0006.96,0006.06
2023-01-06 06:28:00,,0821.6,5.00,0.00,22.3,21.2,00.0,31.1,24.1,08.4,0000.0,0016.10,0006.69,0005.91
2023-01-06 06:29:00,,0821.6,5.01,0.00,22.3,20.8,00.0,31.1,23.9,08.7,0000.0,0014.86,0006.48,0005.81
2023-01-06 06:30:00,,0821.6,5.00,0.00,22.2,20.7,00.0,31.1,23.8,09.0,0000.0,0014.55,0006.36,0005.77
2023-01-06 06:31:00,,0821.6,5.00,0.00,22.2,20.6,00.0,31.1,23.8,09.1,0000.0,0012.94,0006.30,0005.75
2023-01-06 06:32:00,,0821.6,5.01,0.00,22.2,20.6,00.0,31.1,23.8,09.2,0000.0,0012.00,0006.27,0005.72
2023-01-06 06:33:00,,0821.6,4.99,0.00,22.1,20.6,00.0,31.1,23.7,09.1,0000.0,0011.46,0006.23,0005.66
2023-01-06 06:34:00,,0821.6,5.01,0.00,22.1,20.5,00.0,31.0,23.7,09.1,0000.0,0011.09,0006.13,0005.63
2023-01-06 06:35:00,,0821.5,5.00,0.00,22.1,20.5,00.0,31.0,23.7,09.0,0000.0,0011.49,0006.05,0005.56
2023-01-06 06:36:00,,0821.6,5.00,0.00,22.1,20.7,00.0,31.0,23.8,08.9,0000.0,0011.89,0006.04,0005.52
2023-01-06 06:37:00,,0821.7,5.00,0.00,22.2,21.7,00.0,30.9,24.0,08.9,0000.0,0012.06,0006.11,0005.60
2023-01-06 06:38:00,,0821.7,5.00,0.00,22.3,22.7,00.0,30.9,24.3,09.1,0000.0,0012.13,0006.23,0005.71
2023-01-06 06:39:00,,0821.6,5.00,0.00,22.4,22.8,00.0,31.0,24.4,09.0,0000.0,0012.39,0006.36,0005.82
2023-01-06 06:40:00,,0821.6,4.99,0.00,22.4,22.3,00.0,31.1,24.3,09.0,0000.0,0012.65,0006.43,0005.88
2023-01-06 06:41:00,,0821.5,5.00,0.00,22.4,21.8,00.0,31.1,24.2,08.9,0000.0,0012.59,0006.42,0005.86
2023-01-06 06:42:00,,0821.5,5.01,0.00,22.4,21.5,00.0,31.1,24.1,09.0,0000.0,0012.74,0006.41,0005.84
2023-01-06 06:43:00,,0821.4,5.01,0.00,22.3,21.3,00.0,31.1,24.1,09.1,0000.0,0013.10,0006.39,0005.83
2023-01-06 06:44:00,,0821.4,5.00,0.00,22.3,21.1,00.0,31.1,24.1,09.1,0000.0,0013.20,0006.38,0005.83
2023-01-06 06:45:00,,0821.4,5.01,0.00,22.3,21.0,00.0,31.1,24.0,09.1,0000.0,0013.44,0006.41,0005.83
2023-01-06 06:46:00,,0821.4,5.01,0.00,22.3,20.9,00.0,31.1,24.0,09.2,0000.0,0013.45,0006.44,0005.84
2023-01-06 06:47:00,,0821.4,4.99,0.00,22.3,20.9,00.0,31.1,24.0,09.2,0000.0,0013.90,0006.45,0005.85
2023-01-06 06:48:00,,0821.4,5.00,0.00,22.3,20.8,00.0,31.1,23.9,09.2,0000.0,0014.16,0006.53,0005.85
2023-01-06 06:49:00,,0821.4,5.00,0.00,22.2,20.8,00.0,31.1,23.9,09.2,0000.0,0014.39,0006.55,0005.84
2023-01-06 06:50:00,,0821.4,5.00,0.00,22.2,20.6,00.0,31.1,23.9,09.2,0000.0,0014.08,0006.55,0005.82
2023-01-06 06:51:00,,0821.4,5.00,0.00,22.1,20.4,00.0,31.1,23.7,09.1,0000.0,0014.21,0006.54,0005.81
2023-01-06 06:52:00,,0821.4,5.00,0.00,22.1,20.3,00.0,31.1,23.7,09.2,0000.0,0014.14,0006.54,0005.81
2023-01-06 06:53:00,,0821.3,5.00,0.00,22.1,20.3,00.0,31.0,23.7,09.2,0000.0,0013.97,0006.53,0005.83
2023-01-06 06:54:00,,0821.4,5.00,0.00,22.1,20.6,00.0,31.0,23.8,09.3,0000.0,0013.63,0006.51,0005.82
2023-01-06 06:55:00,,0821.4,4.99,0.00,22.1,21.5,00.0,31.0,24.0,09.3,0000.0,0013.30,0006.47,0005.81
2023-01-06 06:56:00,,0821.4,5.01,0.00,22.3,22.4,00.0,31.0,24.2,09.2,0000.0,0012.61,0006.40,0005.78
2023-01-06 06:57:00,,0821.4,4.99,0.00,22.3,22.3,00.0,31.0,24.3,09.2,0000.0,0012.25,0006.37,0005.73
2023-01-06 06:58:00,,0821.4,5.00,0.00,22.3,21.9,00.0,31.1,24.2,09.1,0000.0,0011.59,0006.34,0005.70
2023-01-06 06:59:00,,0821.3,5.01,0.00,22.3,21.6,00.0,31.1,24.1,09.1,0000.0,0011.59,0006.28,0005.69
